User: anonymous   Login
Location: Theydon Bois
(51.6750°N, 0.1050°E)
Time: 08:43:47
(UTC+01:00)
Language:

YAOGAN 6 - Orbit

View from above orbital plane
View from above orbital plane
View from above satellite
View from above satellite

Ground track
Ground track

The orbit data is extracted from the following two-line orbital elements,

1 34839U 09021A   18172.71993392  .00000508  00000-0  22032-4 0  9997
2 34839  97.0926 210.7572 0030299  88.5982 271.8728 15.26198005508947
Epoch (UTC): 21 June 2018 17:16:42
Eccentricity: 0.0030299
inclination: 97.0926°
perigee height: 466 km
apogee height: 508 km
right ascension of ascending node: 210.7572°
argument of perigee: 88.5982°
revolutions per day: 15.26198005
mean anomaly at epoch: 271.8728°
orbit number at epoch: 50894

The dashed part of the orbit path shows where the satellite is in the earth's shadow,  

DLR